Location: Unspecified
(51.0950°N, 12.9690°E)
Time: 22:10:08
(UTC+00:00)

First-Move - Pass Details

Date: 29 April 2024
Orbit: 539 x 600 km, 97.7° (Epoch: 17 May)

Event Time Altitude Azimuth Distance (km) Brightness Sun altitude
Rises 02:36:06 0° 15° (NNE) 2,873 ? -9.9°
Reaches altitude 10° 02:38:18 10° 17° (NNE) 1,967 ? -9.7°
Maximum altitude 02:42:35 73° 102° (ESE) 639 ? -9.1°
Drops below altitude 10° 02:46:49 10° 188° (S) 1,943 ? -8.6°
Enters shadow 02:48:30 - 190° (S) 2,637 ? -8.4°
